COSMOS 2491 DEB, 45127

Orbit data source: Space-Track

COSMOS 2491 DEB, 45127 is space debris in LEO originally from a launch on Wed, 25 Dec 2013 UTC launched from the Plesetsk Missile And Space Complex (PKMTR). Debris objects in space refer to the collection of defunct objects orbiting the Earth. Examples of debris include non-operational satellites, rocket bodies, and fragments generated from explosions, collisions, or faulty payload assembly.

Loading next visibility...
Identifier
45127, 2013-076Z
Orbit
LEO
Country
Flag of CISCIS
Related business
Manufacturer
TsNIIKhM
Mission
Spacecraft
Bus & Motor
Unknown
Mass
Unknown
Launch date (UTC)
2013-12-25 (12 years ago)
Launch vehicle
Unknown
Launch site
Plesetsk Missile And Space Complex (PKMTR)
Object type
Payload
Rocket body
Debris
Shape & HBR
Unknown shape, 0.1 m
Radar Cross Section
Small (<0.1 m²)

Expand to show TLE details & history
Last TLE update: 5 days ago

TLE from 5 days ago
0 COSMOS 2491 DEB
1 45127U 13076Z   26116.37777794  .00001718  00000-0  95364-2 0  9999
2 45127  82.4590 156.7759 0028732 336.5004  23.4773 12.62265077286710
Epoch: 2026-04-26T09:04Z
TLE epoch observation values (Epoch: 2026-04-26T09:04:00.014Z)
Latitude
0.0001°
Longitude
166.39319°
Altitude
1,395.809 km
Speed
7.171 km/s
True Right ascension
10h 27m 06s
True Declination
0° 00' 00"
Sunlit
Object was in daylight at epoch
Visualization orbit readout
Latitude
Unknown
Longitude
Unknown
Altitude
Unknown
Speed
Unknown
Apparent Right ascension
Unknown
Apparent Declination
Unknown
Sunlit
N/A
Visualization observer readout
Local Sidereal Time
18:10:33
Azimuth
Unknown
Elevation
Unknown
Doppler factor
Unknown
Orbital elements
Apogee altitude
1,433.314 km
Perigee altitude
1,388.555 km
Semi-major axis
7,789.071 km
Eccentricity
0.00287
Inclination
82.459°
RAAN
156.7759°
Arg. of periapsis
336.5004°
True anomaly
23.6089°
Mean anomaly
23.4773°
Eccentric anomaly
23.54306°
Mean motion
3.15729 °/min
Orbital period
114.02 mins
BSTAR
0.0095364
Loading maneuver chart data...
Computing Atmospheric mass density...
Loading historical data...
Loading historical data...
Loading historical data...
Loading historical data...
Loading historical data...
Loading historical data...
Loading historical data...

Documentation

Showing up to 5 results
|